BREEZE-M R/B (43868 NORAD) Tracking and Keplerian Element Data

This shows tracking and keplerian element data for the satellite.

Feedback or suggestion? Click here.




ElementValue
Catalog43868
NameBREEZE-M R/B
Epoch Orbit20
Epoch Day17.12555609
Epoch Year2019
RAAN211.0803
Inclination0.1356
Eccentricity0.0710292
Argument of Perigee125.9732
Mean Anonmoly19.8762
Mean Motion0.9047005
Decay Rate-1.26E-06
L11 43868U 18107B 19017.12555609 -.00000126 00000-0 00000-0 0 9997
L22 43868 0.1356 211.0803 0710292 125.9732 19.8762 0.90470050 201

Live tracking and technical data element details for BREEZE-M R/B (NORAD 43868). BREEZE-M R/B can be tracked NOW for your location showing map with azimuth and elevation plus other details from your city location.

Track the satellite on the map from your city or location and see movement details for azimuth, elevation, latitude, longitude, range, height, and movement on the map or in text.







IsCatalogInMostPopularTable: catalog: 43868, numindb: 14
Update: records affected: 1



GetName: 43868 BREEZE-M R/B

Hit Count: updated at: Fri, 18 Jan 2019 22:55:11 GMT